TimeCST,TemperatureF,Dew PointF,Humidity,Sea Level PressureIn,VisibilityMPH,Wind Direction,Wind SpeedMPH,Gust SpeedMPH,PrecipitationIn,Events,Conditions,WindDirDegrees,DateUTC
12:15 AM,33.8,32.0,93,29.80,10.0,SSW,5.8,-,N/A,,Clear,210,2013-01-19 06:15:00
12:35 AM,33.8,32.0,93,29.80,10.0,SW,5.8,-,N/A,,Clear,230,2013-01-19 06:35:00
12:55 AM,33.8,32.0,93,29.79,10.0,SW,5.8,-,N/A,,Scattered Clouds,230,2013-01-19 06:55:00
1:15 AM,33.8,32.0,93,29.78,10.0,SW,6.9,-,N/A,,Mostly Cloudy,230,2013-01-19 07:15:00
1:35 AM,33.8,30.2,87,29.78,10.0,WSW,4.6,-,N/A,,Overcast,240,2013-01-19 07:35:00
1:55 AM,33.8,32.0,93,29.78,10.0,SW,5.8,-,N/A,,Mostly Cloudy,230,2013-01-19 07:55:00
2:15 AM,33.8,30.2,87,29.79,10.0,SW,11.5,-,N/A,,Scattered Clouds,230,2013-01-19 08:15:00
2:35 AM,33.8,30.2,87,29.78,10.0,SW,6.9,-,N/A,,Mostly Cloudy,230,2013-01-19 08:35:00
2:55 AM,33.8,30.2,87,29.78,10.0,SSW,8.1,-,N/A,,Overcast,210,2013-01-19 08:55:00
3:15 AM,32.0,30.2,93,29.77,10.0,SW,3.5,-,N/A,,Mostly Cloudy,220,2013-01-19 09:15:00
3:35 AM,32.0,30.2,93,29.76,10.0,SSW,3.5,-,N/A,,Scattered Clouds,210,2013-01-19 09:35:00
3:55 AM,32.0,30.2,93,29.76,10.0,SSW,4.6,-,N/A,,Scattered Clouds,210,2013-01-19 09:55:00
4:35 AM,32.0,30.2,93,29.75,10.0,Calm,Calm,-,N/A,,Scattered Clouds,0,2013-01-19 10:35:00
4:55 AM,32.0,30.2,93,29.75,10.0,SSW,6.9,-,N/A,,Overcast,210,2013-01-19 10:55:00
5:15 AM,32.0,30.2,93,29.75,10.0,SSW,5.8,-,N/A,,Overcast,210,2013-01-19 11:15:00
5:35 AM,32.0,30.2,93,29.76,10.0,SW,4.6,-,N/A,,Overcast,220,2013-01-19 11:35:00
6:41 AM,33.8,28.4,81,29.74,10.0,SW,8.1,-,N/A,,Overcast,230,2013-01-19 12:41:00
6:55 AM,33.8,30.2,87,29.74,10.0,SW,6.9,-,N/A,,Overcast,230,2013-01-19 12:55:00
7:15 AM,32.0,30.2,93,29.74,10.0,WSW,5.8,-,N/A,,Scattered Clouds,240,2013-01-19 13:15:00
7:55 AM,32.0,28.4,87,29.75,10.0,West,3.5,-,N/A,,Clear,280,2013-01-19 13:55:00
8:15 AM,32.0,28.4,87,29.75,10.0,West,5.8,-,N/A,,Scattered Clouds,280,2013-01-19 14:15:00
8:35 AM,33.8,28.4,81,29.75,10.0,West,9.2,-,N/A,,Scattered Clouds,270,2013-01-19 14:35:00
9:35 AM,35.6,28.4,75,29.78,10.0,West,10.4,-,N/A,,Clear,270,2013-01-19 15:35:00
9:55 AM,37.4,30.2,75,29.79,10.0,WNW,12.7,17.3,N/A,,Clear,290,2013-01-19 15:55:00
10:15 AM,39.2,30.2,70,29.80,10.0,WNW,16.1,-,N/A,,Clear,290,2013-01-19 16:15:00
10:35 AM,39.2,30.2,70,29.80,10.0,WNW,15.0,26.5,N/A,,Clear,290,2013-01-19 16:35:00
11:15 AM,39.2,30.2,70,29.81,10.0,WNW,18.4,21.9,N/A,,Scattered Clouds,290,2013-01-19 17:15:00
11:35 AM,39.2,30.2,70,29.81,10.0,WNW,15.0,20.7,N/A,,Clear,300,2013-01-19 17:35:00
11:55 AM,41.0,30.2,65,29.79,10.0,WNW,17.3,23.0,N/A,,Clear,300,2013-01-19 17:55:00
12:15 PM,41.0,30.2,65,29.79,10.0,WNW,16.1,21.9,N/A,,Clear,300,2013-01-19 18:15:00
12:35 PM,41.0,30.2,65,29.79,10.0,WNW,18.4,23.0,N/A,,Clear,300,2013-01-19 18:35:00
12:55 PM,41.0,30.2,65,29.80,10.0,WNW,18.4,27.6,N/A,,Scattered Clouds,300,2013-01-19 18:55:00
1:15 PM,41.0,32.0,70,29.80,10.0,NW,20.7,28.8,N/A,,Mostly Cloudy,310,2013-01-19 19:15:00
1:35 PM,41.0,32.0,70,29.81,10.0,WNW,18.4,29.9,N/A,,Scattered Clouds,300,2013-01-19 19:35:00
1:55 PM,42.8,32.0,66,29.82,10.0,NW,20.7,32.2,N/A,,Clear,310,2013-01-19 19:55:00
2:15 PM,41.0,32.0,70,29.83,10.0,NW,26.5,33.4,N/A,,Scattered Clouds,310,2013-01-19 20:15:00
2:35 PM,41.0,32.0,70,29.84,10.0,NW,24.2,31.1,N/A,,Scattered Clouds,310,2013-01-19 20:35:00
2:55 PM,-9999,-9999,N/A,29.86,10.0,WNW,24.2,33.4,N/A,,Mostly Cloudy,300,2013-01-19 20:55:00
3:15 PM,39.2,30.2,70,29.86,10.0,WNW,23.0,29.9,N/A,,Overcast,300,2013-01-19 21:15:00
3:35 PM,39.2,30.2,70,29.87,10.0,WNW,21.9,31.1,N/A,,Overcast,300,2013-01-19 21:35:00
3:55 PM,-9999,-9999,N/A,29.88,10.0,WNW,21.9,31.1,N/A,,Overcast,300,2013-01-19 21:55:00
4:15 PM,-9999,-9999,N/A,29.91,10.0,NNW,26.5,38.0,N/A,,Overcast,330,2013-01-19 22:15:00
4:35 PM,-9999,-9999,N/A,29.93,10.0,NW,25.3,38.0,N/A,,Overcast,320,2013-01-19 22:35:00
4:55 PM,30.2,24.8,80,29.95,10.0,NW,25.3,32.2,N/A,,Overcast,310,2013-01-19 22:55:00
5:15 PM,30.2,23.0,75,29.97,10.0,NW,28.8,35.7,N/A,,Overcast,320,2013-01-19 23:15:00
5:35 PM,-9999,-9999,N/A,30.00,10.0,NW,21.9,31.1,N/A,,Overcast,320,2013-01-19 23:35:00
5:55 PM,26.6,19.4,74,30.01,10.0,NW,29.9,39.1,N/A,,Overcast,320,2013-01-19 23:55:00
6:15 PM,23.0,14.0,68,30.04,7.0,NW,33.4,43.7,N/A,,Mostly Cloudy,320,2013-01-20 00:15:00
6:35 PM,21.2,10.4,63,30.06,10.0,NW,27.6,39.1,N/A,,Clear,320,2013-01-20 00:35:00
6:55 PM,-9999,-9999,N/A,30.07,10.0,NW,26.5,38.0,N/A,,Clear,310,2013-01-20 00:55:00
7:15 PM,19.4,8.6,63,30.08,10.0,NW,29.9,40.3,N/A,,Scattered Clouds,310,2013-01-20 01:15:00
7:35 PM,17.6,8.6,68,30.10,10.0,NW,27.6,38.0,N/A,,Scattered Clouds,320,2013-01-20 01:35:00
7:55 PM,17.6,6.8,63,30.11,10.0,NW,27.6,38.0,N/A,,Clear,320,2013-01-20 01:55:00
8:15 PM,15.8,5.0,62,30.12,10.0,NW,21.9,36.8,N/A,,Clear,320,2013-01-20 02:15:00
8:35 PM,14.0,3.2,62,30.13,10.0,NW,23.0,36.8,N/A,,Scattered Clouds,320,2013-01-20 02:35:00
8:55 PM,12.2,1.4,62,30.14,10.0,NW,25.3,39.1,N/A,,Scattered Clouds,320,2013-01-20 02:55:00
9:15 PM,12.2,1.4,62,30.15,10.0,NW,29.9,42.6,N/A,,Scattered Clouds,310,2013-01-20 03:15:00
9:58 PM,10.4,-0.4,62,30.17,10.0,NW,23.0,32.2,N/A,,Clear,320,2013-01-20 03:58:00
10:15 PM,10.4,1.4,67,30.19,10.0,NW,23.0,28.8,N/A,,Clear,320,2013-01-20 04:15:00
10:35 PM,10.4,1.4,67,30.19,10.0,NW,19.6,28.8,N/A,,Clear,310,2013-01-20 04:35:00
10:55 PM,8.6,-0.4,67,30.20,10.0,NW,18.4,28.8,N/A,,Clear,310,2013-01-20 04:55:00
11:15 PM,8.6,-0.4,67,30.20,10.0,NW,23.0,29.9,N/A,,Scattered Clouds,320,2013-01-20 05:15:00
11:35 PM,8.6,-2.2,62,30.21,10.0,NW,17.3,27.6,N/A,,Clear,320,2013-01-20 05:35:00